Regional Weather Roundup
Issued by NWS Newport/Morehead, NC

Current Version | Previous Version | Text Only | Print | Product List | Glossary Off
Versions: 1 2 3 4 5 6 7 8 9 10 11 12 13 14 15 16 17 18 19 20 21 22 23 24 25 26 27 28 29 30 31 32 33 34 35 36 37 38 39 40 41 42 43 44 45 46 47 48 49 50
000 ASUS42 KMHX 270125 RWRMHX WEATHER ROUNDUP FOR EASTERN NORTH CAROLINA NATIONAL WEATHER SERVICE NEWPORT/MOREHEAD CITY NC 900 PM EDT FRI AUG 26 2016 NOTE: "FAIR" INDICATES FEW OR NO CLOUDS BELOW 12,000 FEET WITH NO SIGNIFICANT WEATHER AND/OR OBSTRUCTIONS TO VISIBILITY NCZ015>017-031-032-045>047-102-103-270200- NORTH COAST CITY SKY/WX TMP DP RH WIND PRES REMARKS EDENTON CLEAR 85 73 66 S9 30.06R ELIZABETH CITY CLEAR 82 75 79 CALM 30.05R KITTY HAWK CLEAR 81 76 86 S3 30.05R MANTEO CLEAR 82 74 77 SW12 30.06R $$ NCZ045>047-081-094-103-104-270200- CENTRAL COAST CITY SKY/WX TMP DP RH WIND PRES REMARKS FRISCO CLEAR 82 70 66 S7 30.06R $$ NCZ095-097-098-100-101-270200- SOUTHERN COAST CITY SKY/WX TMP DP RH WIND PRES REMARKS BEAUFORT CLEAR 80 71 74 SE5 30.06S CEDAR ISLAND NOT AVBL JACKSONVILLE CLEAR 78 72 81 S3 30.06R PINEY ISLAND NOT AVBL WILMINGTON CLEAR 81 71 71 SE6 30.06R $$ NCZ011>013-027>030-043-044-078>080-089-090>093-098-270200- COASTAL PLAIN CITY SKY/WX TMP DP RH WIND PRES REMARKS AHOSKIE CLEAR 78 76 92 CALM 30.05R CLINTON CLEAR 83 76 78 CALM 30.06R ELIZABETHTOWN CLEAR 82 74 77 SE3 30.06R GOLDSBORO CLEAR 85 77 77 S5 30.05R GREENVILLE CLEAR 84 77 79 S5 30.07R HAVELOCK CLEAR 79 71 76 S5 30.07R KENANSVILLE CLEAR 81 75 83 CALM 30.07R KINSTON CLEAR 82 73 74 S5 30.07R NEW BERN CLEAR 80 73 79 S7 30.07R RICHLANDS CLEAR 79 73 82 S6 30.07R ROCKY MOUNT CLEAR 80 76 87 CALM 30.05R WASHINGTON CLEAR 82 75 78 S3 30.06R WHITEVILLE CLEAR 79 74 85 CALM 30.06R $$ AMZ130-135-150-152-154-156-158-170-250-252-270-ANZ085-086-088-633-658-670-270200- MARINE OBSERVATIONS STATION/POSITION TIME TEMP WIND PRES WAVE SWELL AIR SEA DIR/SP/G HT/PER HT/PER (UTC) (F) (DEG/KT/KT) (MB) (FT/S) (FT/S) CHESAPEAKE LIGHT NOT AVBL 64 E VA BEACH 0050 81 81 210/ 8/ 10 1017.5 2/ 8 2/ 8 DUCK 0000 83 78 160/ 7/ 8 1016.5 2 E DUCK 0011 80 N/A 2/ 8 OREGON INLET 0000 82 82 180/ 8/ 10 1017.3 13E OREGON INLT 0100 79 N/A 2/ 8 2/ 8 HATTERAS CG 0000 82 83 160/ 6/ 7 1017.4 DIAMOND BUOY 0050 82 85 150/ 6/ 8 1018.2 2/ 8 2/ 8 CAPE LOOKOUT 0100 81 140/ 8/ 9 1017.9 BEAUFORT LAB 0000 81 82 150/ 6/ 8 1017.2 30 SE NEW RVR IN 0108 82 84 110/ 8/ 12 1018.0 30 SE NEW RVR IN 0025 84 N/A 2/ 8 27 SE WRIGHTSVLE 0108 82 84 100/ 8/ 12 1018.1 5 SE WRIGHTSVLE 0108 82 84 130/ 8/ 12 1019.0 225 S CAPE HAT 0050 82 84 80/ 16/ 17 1016.1 6/10 3/10 41 SE CHARLESTON 0050 82 83 80/ 12/ 14 1016.5 3/ 4 2/ 7 $$

USA.gov is the U.S. government's official web portal to all federal, state and local government web resources and services.